When you browse on this site, cookies collect data to enhance your experience and personalize the content and advertising you see.
Visit our Privacy Policy to learn more. By continuing to use the site, you agree to this use of cookies and data.
  • In France
  • List of Countries
  • For 7 days
  • Water Temperature
  • Satellite Maps
  • Weather Map
  • Weather Widgets
  • user-avatar
    Login

    Hourly Weather Dinagepoor

    Today, 16 February, Saturday

    Time Temperature Precipitation Wind Pressure Humidity
    00:00 +22°C° 0 mm 3 mps 759 mmHg 61%
    01:00 +22°C° 0 mm 3 mps 759 mmHg 62%
    02:00 +22°C° 0 mm 3 mps 759 mmHg 62%
    03:00 +21°C° 0 mm 3 mps 759 mmHg 62%
    04:00 +21°C° 0.1 mm 3 mps 759 mmHg 64%
    05:00 +21°C° 0.1 mm 2 mps 759 mmHg 66%
    06:00 +21°C° 0.1 mm 2 mps 759 mmHg 67%
    07:00 +21°C° 0 mm 2 mps 759 mmHg 65%
    08:00 +23°C° 0 mm 2 mps 759 mmHg 62%
    09:00 +23°C° 0 mm 2 mps 760 mmHg 59%
    10:00 +25°C° 0 mm 2 mps 759 mmHg 54%
    11:00 +27°C° 0 mm 2 mps 759 mmHg 48%
    12:00 +28°C° 0 mm 3 mps 759 mmHg 42%
    13:00 +29°C° 0 mm 3 mps 758 mmHg 39%
    14:00 +30°C° 0 mm 4 mps 757 mmHg 37%
    15:00 +32°C° 0 mm 4 mps 756 mmHg 34%
    16:00 +30°C° 0 mm 3 mps 756 mmHg 38%
    17:00 +28°C° 0 mm 3 mps 756 mmHg 42%
    18:00 +27°C° 0 mm 2 mps 755 mmHg 46%
    19:00 +26°C° 0 mm 2 mps 755 mmHg 49%
    20:00 +26°C° 0 mm 2 mps 756 mmHg 51%
    21:00 +25°C° 0 mm 2 mps 756 mmHg 54%
    22:00 +24°C° 0.3 mm 1 mps 756 mmHg 59%
    23:00 +23°C° 0.3 mm 1 mps 756 mmHg 64%

    Tomorrow, 17 February, Sunday

    Time Temperature Precipitation Wind Pressure Humidity
    00:00 +20°C° 0.3 mm 0 mps 756 mmHg 69%
    01:00 +22°C° 0.6 mm 1 mps 756 mmHg 72%
    02:00 +21°C° 0.6 mm 1 mps 756 mmHg 75%
    03:00 +21°C° 0.6 mm 1 mps 755 mmHg 78%
    04:00 +21°C° 0 mm 1 mps 755 mmHg 78%
    05:00 +19°C° 0 mm 2 mps 755 mmHg 79%
    06:00 +19°C° 0 mm 2 mps 755 mmHg 80%
    07:00 +20°C° 0 mm 2 mps 756 mmHg 76%
    08:00 +21°C° 0 mm 3 mps 756 mmHg 71%
    09:00 +22°C° 0 mm 3 mps 757 mmHg 66%
    10:00 +25°C° 0 mm 4 mps 757 mmHg 58%
    11:00 +26°C° 0 mm 4 mps 756 mmHg 50%
    12:00 +27°C° 0 mm 5 mps 756 mmHg 42%
    13:00 +28°C° 0 mm 5 mps 755 mmHg 41%
    14:00 +28°C° 0 mm 5 mps 754 mmHg 40%
    15:00 +28°C° 0 mm 5 mps 754 mmHg 38%
    16:00 +28°C° 0 mm 4 mps 754 mmHg 41%
    17:00 +27°C° 0 mm 4 mps 753 mmHg 44%
    18:00 +26°C° 0 mm 3 mps 753 mmHg 47%
    19:00 +25°C° 0 mm 3 mps 754 mmHg 51%
    20:00 +24°C° 0 mm 3 mps 754 mmHg 54%
    21:00 +22°C° 0 mm 3 mps 754 mmHg 57%
    22:00 +22°C° 0 mm 3 mps 754 mmHg 59%
    23:00 +21°C° 0 mm 3 mps 754 mmHg 61%

    Day after tomorrow, 18 February, Monday

    Time Temperature Precipitation Wind Pressure Humidity
    00:00 +21°C° 0 mm 3 mps 754 mmHg 63%
    01:00 +20°C° 0 mm 3 mps 754 mmHg 65%
    02:00 +20°C° 0 mm 3 mps 754 mmHg 66%
    03:00 +19°C° 0 mm 3 mps 754 mmHg 68%
    04:00 +19°C° 0 mm 3 mps 754 mmHg 70%
    05:00 +18°C° 0 mm 3 mps 754 mmHg 71%
    06:00 +18°C° 0 mm 2 mps 755 mmHg 72%
    07:00 +19°C° 0 mm 2 mps 756 mmHg 68%
    08:00 +20°C° 0 mm 3 mps 756 mmHg 64%
    09:00 +22°C° 0 mm 3 mps 757 mmHg 60%
    10:00 +24°C° 0 mm 3 mps 757 mmHg 54%
    11:00 +25°C° 0 mm 3 mps 757 mmHg 49%
    12:00 +26°C° 0 mm 3 mps 757 mmHg 43%
    13:00 +27°C° 0 mm 3 mps 756 mmHg 40%
    14:00 +28°C° 0 mm 3 mps 755 mmHg 37%
    15:00 +28°C° 0 mm 4 mps 754 mmHg 34%
    16:00 +27°C° 0 mm 3 mps 754 mmHg 37%
    17:00 +26°C° 0 mm 3 mps 754 mmHg 39%
    18:00 +25°C° 0 mm 2 mps 754 mmHg 42%
    19:00 +25°C° 0 mm 2 mps 755 mmHg 44%
    20:00 +24°C° 0 mm 2 mps 755 mmHg 46%
    21:00 +23°C° 0 mm 2 mps 756 mmHg 48%
    22:00 +23°C° 0 mm 2 mps 756 mmHg 49%
    23:00 +21°C° 0 mm 2 mps 756 mmHg 50%

    19 February, Tuesday

    Time Temperature Precipitation Wind Pressure Humidity
    00:00 +21°C° 0 mm 2 mps 756 mmHg 52%
    01:00 +20°C° 0 mm 2 mps 756 mmHg 54%
    02:00 +20°C° 0 mm 2 mps 756 mmHg 56%
    03:00 +20°C° 0 mm 1 mps 755 mmHg 58%
    04:00 +20°C° 0 mm 1 mps 756 mmHg 62%
    05:00 +19°C° 0 mm 1 mps 756 mmHg 66%
    06:00 +19°C° 0 mm 1 mps 756 mmHg 69%
    07:00 +20°C° 0 mm 1 mps 757 mmHg 67%
    08:00 +20°C° 0 mm 2 mps 758 mmHg 64%
    09:00 +21°C° 0 mm 2 mps 759 mmHg 62%
    10:00 +24°C° 0 mm 2 mps 759 mmHg 54%
    11:00 +26°C° 0 mm 1 mps 759 mmHg 47%
    12:00 +27°C° 0 mm 1 mps 759 mmHg 39%
    13:00 +28°C° 0 mm 2 mps 758 mmHg 37%
    14:00 +29°C° 0 mm 3 mps 757 mmHg 34%
    15:00 +30°C° 0 mm 4 mps 757 mmHg 31%
    16:00 +29°C° 0 mm 3 mps 757 mmHg 33%
    17:00 +28°C° 0 mm 3 mps 757 mmHg 36%
    18:00 +27°C° 0 mm 2 mps 757 mmHg 39%
    19:00 +26°C° 0 mm 2 mps 757 mmHg 40%
    20:00 +25°C° 0 mm 2 mps 758 mmHg 42%
    21:00 +24°C° 0 mm 2 mps 758 mmHg 43%
    22:00 +24°C° 0 mm 2 mps 758 mmHg 45%
    23:00 +23°C° 0 mm 2 mps 759 mmHg 47%

    20 February, Wednesday

    Time Temperature Precipitation Wind Pressure Humidity
    00:00 +23°C° 0 mm 2 mps 759 mmHg 50%
    01:00 +21°C° 0 mm 2 mps 758 mmHg 54%
    02:00 +20°C° 0 mm 2 mps 758 mmHg 58%
    03:00 +21°C° 0 mm 1 mps 758 mmHg 62%
    04:00 +20°C° 0 mm 1 mps 758 mmHg 65%
    05:00 +20°C° 0 mm 1 mps 758 mmHg 67%
    06:00 +20°C° 0 mm 1 mps 759 mmHg 69%
    07:00 +21°C° 0 mm 1 mps 760 mmHg 66%
    08:00 +21°C° 0 mm 2 mps 760 mmHg 63%
    09:00 +23°C° 0 mm 2 mps 761 mmHg 59%
    10:00 +25°C° 0 mm 2 mps 761 mmHg 52%
    11:00 +27°C° 0 mm 1 mps 760 mmHg 45%
    12:00 +29°C° 0 mm 1 mps 760 mmHg 38%
    13:00 +29°C° 0 mm 2 mps 759 mmHg 34%
    14:00 +30°C° 0 mm 3 mps 759 mmHg 31%
    15:00 +32°C° 0 mm 4 mps 758 mmHg 27%
    16:00 +30°C° 0 mm 3 mps 758 mmHg 29%
    17:00 +29°C° 0 mm 3 mps 758 mmHg 31%
    18:00 +28°C° 0 mm 2 mps 758 mmHg 33%
    19:00 +27°C° 0 mm 2 mps 758 mmHg 35%
    20:00 +26°C° 0 mm 2 mps 759 mmHg 37%
    21:00 +25°C° 0 mm 2 mps 760 mmHg 39%
    22:00 +24°C° 0 mm 2 mps 760 mmHg 42%
    23:00 +24°C° 0 mm 2 mps 760 mmHg 44%

    21 February, Thursday

    Time Temperature Precipitation Wind Pressure Humidity
    00:00 +23°C° 0 mm 2 mps 760 mmHg 47%
    01:00 +21°C° 0 mm 2 mps 760 mmHg 53%
    02:00 +21°C° 0 mm 3 mps 760 mmHg 58%
    03:00 +20°C° 0 mm 3 mps 759 mmHg 63%
    04:00 +20°C° 0 mm 3 mps 760 mmHg 66%
    05:00 +19°C° 0 mm 3 mps 760 mmHg 69%
    06:00 +19°C° 0 mm 2 mps 760 mmHg 72%
    07:00 +20°C° 0 mm 3 mps 761 mmHg 68%
    08:00 +21°C° 0 mm 3 mps 761 mmHg 63%
    09:00 +22°C° 0 mm 4 mps 762 mmHg 58%
    10:00 +25°C° 0 mm 3 mps 761 mmHg 52%
    11:00 +26°C° 0 mm 3 mps 761 mmHg 45%
    12:00 +28°C° 0 mm 2 mps 761 mmHg 39%
    13:00 +29°C° 0 mm 2 mps 760 mmHg 36%
    14:00 +30°C° 0 mm 1 mps 759 mmHg 34%
    15:00 +31°C° 0 mm 1 mps 758 mmHg 31%
    16:00 +30°C° 0 mm 1 mps 758 mmHg 33%
    17:00 +29°C° 0 mm 1 mps 758 mmHg 36%
    18:00 +28°C° 0 mm 1 mps 758 mmHg 38%
    19:00 +27°C° 0 mm 2 mps 759 mmHg 40%
    20:00 +26°C° 0 mm 2 mps 759 mmHg 41%
    21:00 +26°C° 0 mm 2 mps 759 mmHg 43%
    22:00 +25°C° 0 mm 2 mps 759 mmHg 44%
    23:00 +25°C° 0 mm 2 mps 759 mmHg 46%
    Show more